Theta_e
315 310 307 305 297 291 287 289 293 294 294 297 303 301 302 304 303 293 320 328 332 335 341 344 347 346 343 343 342 343 344 344 344 347 346 344 342 340 339 337 339 341 339 338 340 338 337 336 336
312 310 306 298 290 285 286 291 293 295 298 304 303 303 304 301 314 317 322 329 333 337 340 342 345 346 344 344 344 343 342 343 342 346 346 343 341 338 338 336 338 340 338 339 340 339 337 335 335
310 306 302 294 286 285 286 289 293 294 299 296 301 305 304 306 313 319 323 331 335 337 339 342 344 346 344 345 343 341 342 343 343 344 344 343 340 337 337 335 337 339 337 338 340 337 337 335 334
306 303 298 290 285 290 290 291 295 295 298 299 302 301 307 317 319 323 328 332 335 336 339 342 345 345 343 343 341 340 340 341 342 343 344 342 339 336 336 335 337 338 338 338 338 338 336 335 336
301 298 292 288 289 291 291 294 296 294 296 299 301 298 306 317 324 325 329 332 333 335 338 342 344 345 344 342 341 340 340 339 341 343 343 340 337 335 334 334 335 334 335 335 339 338 337 337 336
297 295 289 286 287 290 295 295 295 294 293 298 302 305 308 316 323 326 330 328 334 334 338 341 338 340 342 342 341 341 340 340 340 341 341 337 336 335 334 334 334 334 333 337 339 338 336 335 335
295 292 288 288 287 290 293 296 293 294 294 297 306 303 303 312 324 328 328 328 332 335 337 339 338 337 336 338 338 339 339 339 340 340 338 335 334 336 334 334 335 332 333 335 336 335 334 334 332
297 293 288 288 288 288 293 295 293 294 295 298 306 298 299 315 324 327 327 327 330 332 335 338 337 336 335 334 332 334 335 336 337 336 334 332 332 332 332 330 333 333 332 333 333 334 333 332 330
297 291 288 290 289 291 291 293 292 295 295 298 299 302 305 321 325 325 324 326 328 332 334 337 338 336 334 333 330 330 331 331 331 330 327 324 323 323 323 326 331 332 331 333 332 331 330 328 327
294 289 291 292 291 291 293 293 294 296 296 297 299 303 311 321 324 323 323 324 328 329 333 335 336 336 334 335 331 330 328 327 326 324 323 322 319 319 321 322 327 329 328 332 330 328 323 317 313
292 290 292 292 293 295 295 291 294 294 293 296 297 300 313 317 321 323 324 325 327 330 332 333 334 335 336 335 332 329 326 323 322 321 320 319 316 316 318 319 319 319 320 320 320 315 312 311 311
293 292 292 295 295 294 294 294 292 293 296 295 297 302 312 317 320 322 322 322 325 330 331 333 334 334 335 335 333 333 329 322 319 319 319 316 314 313 314 316 315 315 313 311 310 310 309 309 310
290 290 293 294 294 293 295 293 292 293 295 294 296 306 312 318 320 322 322 321 323 327 331 332 333 333 334 334 333 332 331 324 320 318 318 316 314 312 312 313 313 313 311 309 308 308 308 307 307
293 291 292 293 292 292 290 290 293 292 292 292 296 301 309 314 317 315 318 320 321 326 328 331 332 333 333 332 332 332 331 329 321 317 317 316 315 312 311 311 312 311 310 308 307 306 305 305 305
292 289 289 289 292 290 291 287 290 292 291 291 293 294 302 309 309 316 321 321 322 324 325 327 331 332 332 332 332 332 332 331 326 319 318 317 315 313 311 310 310 310 309 308 305 304 303 302 302
288 286 284 286 291 290 288 284 288 291 292 291 290 291 294 298 308 311 315 317 319 320 323 326 330 331 332 332 332 332 332 331 329 324 320 318 318 316 314 313 313 312 312 309 306 305 303 303 303
285 280 282 285 291 290 287 285 289 291 292 291 291 291 292 293 295 301 310 313 315 319 320 324 328 329 330 331 332 332 332 331 329 326 322 322 320 318 316 314 314 313 311 309 306 303 303 300 299
282 281 282 281 286 289 287 288 290 291 291 292 292 291 291 292 294 295 297 307 312 314 318 323 326 328 329 330 329 329 331 330 329 327 324 323 321 319 317 315 313 312 311 308 306 301 299 298 299
284 284 282 284 289 287 286 287 290 292 290 291 291 291 291 292 295 294 295 295 303 309 313 318 322 326 328 328 327 327 328 329 330 330 327 323 323 321 318 317 314 312 310 310 306 300 297 294 294
284 283 283 285 289 288 285 287 289 290 291 291 291 291 291 290 292 293 293 292 294 300 309 314 320 323 326 328 329 328 328 328 329 330 330 327 324 322 319 318 315 313 311 309 305 302 296 294 294
284 283 283 283 284 284 283 283 284 287 287 289 290 289 289 289 289 291 292 292 291 292 295 307 313 319 324 327 324 315 316 315 322 327 328 328 327 325 323 320 318 314 313 309 307 304 302 298 291
282 288 286 285 283 280 283 276 282 285 287 287 288 289 290 291 292 293 294 294 294 295 293 295 305 312 317 322 322 322 324 322 324 326 328 328 328 328 325 323 320 317 314 312 308 306 305 305 296
285 288 286 284 281 281 279 278 282 282 283 287 288 288 290 292 292 294 294 294 294 295 296 296 297 305 313 318 323 322 322 323 319 316 318 324 325 327 327 325 322 319 317 314 312 308 305 306 304
289 286 284 281 279 276 278 278 279 281 284 286 287 290 291 292 293 294 294 295 295 295 296 297 301 304 309 314 317 318 320 317 311 310 312 316 320 323 325 324 324 321 319 316 313 310 307 306 307
285 283 277 275 274 274 277 277 280 283 285 285 288 290 291 291 293 293 294 294 295 295 295 296 297 299 304 309 311 313 314 313 312 310 310 307 311 311 319 319 321 322 320 318 315 311 308 306 306
284 283 278 271 271 275 279 277 281 285 289 289 291 290 291 292 292 293 294 294 294 294 295 295 296 296 298 301 305 307 309 310 310 309 307 308 308 312 315 316 318 318 319 317 315 312 308 306 305
285 281 283 278 268 273 277 280 285 287 288 289 290 291 291 292 292 293 293 293 293 293 294 294 295 296 296 297 297 299 301 303 304 305 304 305 304 305 305 307 314 315 315 315 315 312 308 307 305
286 287 281 278 270 269 275 277 279 285 287 288 289 290 292 292 293 293 293 293 294 293 293 294 294 294 295 296 296 297 297 298 298 299 300 300 301 301 300 301 302 306 311 313 313 312 309 306 305
284 283 282 282 279 273 270 277 283 287 288 288 289 291 291 291 291 292 293 293 294 294 294 294 294 294 294 295 295 295 296 296 296 296 297 297 298 298 298 298 298 299 300 302 306 308 309 306 304
284 284 284 279 276 276 277 278 287 290 289 290 290 290 290 290 292 292 293 293 293 293 293 293 293 293 293 293 294 294 295 295 295 296 296 296 296 296 296 296 296 297 298 298 299 301 303 304 304
Wind_Speed
5 5 2 6 6 6 0 3 0 2 1 1 4 5 6 2 4 4 1 4 11 10 6 6 12 13 12 12 12 10 10 11 11 14 15 16 15 14 14 14 12 14 16 15 16 16 17 17 16
4 2 6 3 6 3 5 3 4 4 1 6 5 3 3 1 2 3 7 5 12 10 5 6 12 13 13 12 11 10 11 10 11 12 15 15 14 13 14 13 12 13 15 15 15 17 16 16 16
1 5 4 5 4 4 4 4 5 2 5 2 3 4 3 2 1 7 3 9 9 7 6 7 12 13 13 12 12 11 10 10 11 10 14 14 14 12 13 13 11 13 13 13 16 15 16 16 15
3 5 5 5 3 2 3 3 4 6 2 1 2 5 2 2 6 6 9 10 9 6 6 9 11 13 13 13 12 12 11 11 11 10 14 14 15 12 12 12 11 11 12 12 14 15 15 16 15
5 3 4 3 3 2 2 2 7 4 2 2 1 2 3 2 2 7 11 11 11 7 7 7 11 12 13 12 12 11 11 11 10 11 13 12 12 12 12 12 10 12 11 12 15 15 15 15 15
5 4 4 1 3 3 1 4 5 3 2 2 4 5 3 2 4 6 9 8 7 8 7 6 9 10 11 11 11 10 10 9 10 11 12 11 11 12 12 12 11 11 10 11 14 15 17 16 14
7 5 5 4 2 2 3 6 4 5 5 4 8 5 2 2 6 7 8 8 7 6 7 5 5 7 8 9 8 9 9 9 9 9 10 11 10 11 11 10 11 11 10 10 13 14 15 15 14
6 6 4 2 4 3 4 5 1 5 5 3 3 4 4 5 7 6 7 7 7 6 6 9 5 5 5 6 7 8 8 8 8 8 9 9 9 9 9 8 9 12 10 11 12 13 13 14 13
3 5 3 7 6 3 3 3 1 2 4 2 5 5 1 6 10 7 4 4 4 5 7 10 7 6 5 5 5 7 7 7 8 8 9 7 4 5 6 5 7 11 11 11 12 12 12 13 12
6 4 9 6 6 5 6 3 5 1 1 3 1 2 4 8 12 12 9 10 12 12 10 11 10 10 6 4 6 5 5 4 4 5 5 4 5 4 5 5 6 9 11 11 11 11 10 8 4
3 5 5 2 3 5 7 2 5 6 4 8 9 6 8 6 9 12 10 10 13 14 11 12 12 10 10 7 5 2 2 3 3 5 5 4 4 3 3 2 3 3 5 3 5 5 3 5 4
4 1 4 4 2 5 6 5 3 6 5 3 7 5 8 10 13 14 12 9 10 13 14 13 13 11 10 6 5 5 4 3 3 4 5 4 3 4 3 3 3 3 2 4 3 3 4 5 5
2 2 2 2 3 4 4 0 4 7 8 3 5 6 11 12 12 9 7 6 7 12 14 14 13 11 9 9 6 6 6 4 4 4 5 4 4 4 4 3 3 3 3 3 3 3 3 4 4
5 4 3 2 2 2 2 0 1 3 3 3 2 6 8 10 12 5 7 9 10 11 12 13 11 11 10 9 9 7 7 7 4 4 5 6 4 4 4 4 3 3 3 3 3 3 3 3 2
5 4 2 1 2 1 2 5 9 3 4 1 6 6 6 10 4 11 12 10 10 9 8 12 14 14 13 13 11 9 8 7 7 6 6 7 6 6 5 4 4 4 4 5 4 3 3 3 2
6 6 3 2 4 0 3 9 4 4 3 5 6 7 8 9 12 9 8 8 7 6 10 10 10 13 15 13 12 10 10 10 8 7 7 9 9 9 8 6 5 4 4 3 3 3 3 2 2
7 4 3 4 4 3 3 6 3 1 5 5 5 7 8 9 10 11 11 10 9 10 9 11 12 13 14 12 9 10 11 9 8 8 8 11 10 10 8 7 6 8 6 5 5 2 2 3 3
5 3 1 4 1 2 1 10 8 6 5 9 8 8 8 9 15 7 9 9 9 9 8 10 10 12 12 9 7 5 6 7 6 8 9 13 11 12 10 7 7 8 7 6 6 5 2 2 3
6 5 4 2 1 3 4 7 12 10 6 10 10 9 9 10 8 6 8 8 8 8 9 11 11 13 10 9 9 8 10 9 8 7 10 13 12 13 12 8 8 9 10 11 9 4 4 2 3
4 4 3 1 2 2 4 10 11 9 10 6 7 9 9 8 8 7 8 5 7 7 10 9 12 11 12 10 10 7 8 7 9 8 9 11 11 12 12 11 10 11 8 10 11 9 4 3 7
2 6 4 3 2 4 5 10 7 6 3 6 5 4 4 7 8 8 8 6 3 5 7 7 9 9 10 12 4 3 4 2 4 7 8 10 12 13 14 15 12 12 10 10 12 13 15 9 6
6 7 4 6 4 3 3 6 6 5 10 7 8 8 7 8 7 6 7 8 8 6 3 6 6 8 7 8 7 11 11 10 10 9 9 9 11 12 13 15 14 13 11 12 13 13 13 9 10
5 7 6 4 5 4 3 2 9 5 4 5 8 8 8 8 6 8 8 6 5 7 7 5 2 5 6 7 10 8 9 6 3 3 6 9 8 11 12 13 14 14 11 13 15 12 14 13 9
9 8 8 5 4 1 5 6 7 2 3 2 5 8 8 7 8 8 6 6 7 7 7 7 7 3 1 5 6 7 9 6 3 3 4 5 6 7 10 9 12 14 13 13 13 15 16 15 14
4 7 3 3 3 6 1 3 10 3 1 2 5 5 6 7 8 9 10 10 9 10 9 7 8 7 6 2 2 3 4 4 6 5 5 5 4 4 9 10 9 8 11 12 11 12 14 15 15
6 8 7 8 5 3 3 6 6 1 6 5 5 3 5 8 7 8 8 8 8 9 9 9 9 8 8 7 5 3 3 3 3 4 4 4 4 6 7 7 8 8 9 11 10 9 11 12 13
6 5 5 9 3 4 4 7 3 5 6 6 5 6 7 7 7 7 8 8 9 9 9 9 9 8 8 7 5 5 4 5 5 6 4 4 4 4 6 7 9 9 8 8 9 8 10 10 11
5 9 5 3 4 3 3 5 5 6 9 4 5 7 6 6 9 9 9 9 8 8 8 9 8 8 7 7 7 5 6 5 5 4 5 6 6 5 6 7 7 8 11 10 8 9 7 9 9
3 3 4 6 5 7 3 7 5 11 9 8 6 5 6 7 7 7 7 7 7 8 10 10 12 12 11 10 7 7 6 6 5 5 6 6 6 6 6 7 7 8 8 8 11 12 11 10 9
1 7 7 7 5 1 3 7 4 10 9 7 6 5 5 5 6 6 7 7 8 9 10 9 9 10 10 8 7 6 6 6 6 5 6 6 7 5 6 6 7 7 8 8 10 11 11 13 14
Wind_Direction
356 2 61 38 53 66 97 242 352 110 297 131 118 130 170 119 159 206 326 187 131 141 166 155 128 127 123 119 118 113 107 110 105 109 113 106 98 96 95 96 98 98 92 96 97 91 86 85 86
355 342 43 79 83 72 264 245 197 190 178 128 99 63 58 118 86 87 120 196 141 143 152 133 134 132 132 129 123 118 118 120 112 106 111 104 99 94 93 96 101 100 92 93 106 92 89 89 90
69 42 75 87 107 166 206 195 174 91 151 356 90 59 117 184 20 167 194 146 132 141 140 133 136 135 138 132 126 123 123 124 118 105 117 110 103 97 101 102 109 97 95 95 99 96 91 90 91
52 12 43 80 210 230 193 168 158 124 228 102 121 66 342 231 161 190 141 137 131 136 137 140 142 144 145 133 134 133 128 126 119 112 118 115 105 107 106 110 106 100 92 106 100 98 98 100 97
40 54 60 78 283 282 249 193 141 134 139 88 54 156 338 50 335 139 138 144 144 141 138 146 152 150 144 142 140 135 133 133 129 117 116 110 113 115 117 116 116 112 98 109 113 109 106 101 95
48 90 68 179 268 322 118 157 123 146 132 167 85 126 203 339 130 153 142 143 142 143 142 146 154 146 145 147 146 143 139 138 137 128 126 126 127 126 126 125 127 119 108 99 100 107 102 99 101
111 87 169 160 203 8 199 145 148 180 153 226 154 128 263 249 177 150 138 129 132 135 140 138 149 151 147 148 147 141 141 141 135 132 138 138 139 130 131 130 133 123 120 120 109 105 106 106 104
105 92 117 188 180 240 180 172 179 182 208 74 156 192 216 211 150 121 123 132 137 144 144 157 142 145 148 153 149 141 141 141 133 124 117 117 118 119 120 122 138 128 123 122 125 111 110 108 102
117 70 166 186 146 230 131 159 137 274 120 212 190 150 261 126 122 115 111 112 141 155 162 170 161 155 150 154 160 144 145 142 126 119 119 106 112 110 109 133 133 131 135 122 127 129 111 103 97
89 112 208 184 179 184 175 177 169 141 127 261 255 151 92 132 151 161 175 179 185 187 184 183 179 176 158 155 152 150 152 146 137 129 128 117 128 130 129 129 117 127 147 130 135 132 117 98 93
134 173 188 192 169 154 158 178 157 135 246 222 207 174 151 148 171 174 187 193 193 191 191 189 186 182 173 171 161 142 144 138 137 143 141 136 119 114 107 106 89 104 105 81 108 111 90 107 109
107 136 168 152 170 126 160 131 184 185 225 309 247 171 156 166 185 190 192 189 181 194 199 194 192 189 185 178 171 167 164 154 161 166 156 140 140 143 143 141 138 116 110 118 120 113 115 106 103
122 166 95 87 71 84 115 248 240 251 262 298 45 166 181 188 195 202 196 183 173 194 199 200 196 192 187 182 180 178 176 175 173 167 165 153 158 161 150 157 151 137 124 136 136 129 129 126 125
169 110 104 49 50 52 117 353 349 264 341 208 176 222 211 198 203 171 189 196 193 196 194 195 194 193 189 189 187 186 185 179 168 168 179 168 160 158 161 163 175 158 153 141 149 156 149 137 132
101 89 64 228 116 334 118 290 243 261 347 203 244 256 244 242 227 214 212 214 198 199 182 189 193 196 197 200 196 197 191 178 183 186 175 174 167 168 164 166 181 178 163 155 140 121 103 121 103
76 58 120 261 129 344 119 263 277 6 189 250 234 262 248 247 230 235 224 220 203 187 189 188 189 193 199 201 202 202 200 199 187 183 180 187 186 181 176 179 191 167 167 158 163 158 141 166 190
24 176 190 309 172 112 158 265 272 208 11 314 299 263 262 273 261 239 224 215 208 202 189 192 192 194 196 198 197 203 202 197 191 176 182 189 189 185 187 192 186 169 170 173 167 151 149 172 165
172 167 217 240 160 110 199 267 284 279 302 286 285 274 275 263 258 265 247 230 214 206 202 200 196 202 197 195 190 189 200 203 196 184 188 185 192 191 190 192 179 172 174 171 182 158 150 157 171
135 129 164 227 341 155 226 268 279 288 283 275 269 275 275 271 275 254 258 241 221 208 195 197 193 202 187 193 196 204 211 206 209 201 192 192 188 188 193 195 188 183 188 193 177 140 175 162 140
121 126 181 2 48 117 10 285 268 274 260 248 292 295 285 295 309 315 308 270 225 229 217 204 209 198 199 200 207 204 200 213 216 209 203 195 194 189 189 199 196 195 192 183 176 180 147 161 175
140 160 172 149 40 56 354 306 326 301 303 335 299 285 326 299 320 342 355 5 358 272 238 218 218 212 210 211 173 93 78 66 182 213 212 201 194 198 197 198 199 197 199 197 192 190 186 196 186
173 199 142 131 91 217 23 277 309 320 328 8 9 34 10 11 12 20 24 25 21 4 333 235 226 214 211 188 194 203 212 213 219 218 219 215 204 207 203 203 199 200 198 201 201 199 204 188 203
198 121 125 91 98 86 327 58 271 8 29 10 12 10 6 359 7 23 24 28 21 17 13 355 279 232 215 193 204 204 223 226 210 181 196 217 215 216 220 209 202 203 204 207 205 204 207 208 200
153 77 52 55 84 348 232 149 281 212 183 47 13 9 5 14 19 28 23 31 33 21 29 22 16 16 258 207 207 200 217 212 185 188 199 209 218 225 228 218 211 209 209 207 208 206 204 209 218
82 86 20 1 5 218 358 105 238 245 341 34 90 27 356 10 32 26 24 19 17 21 21 20 24 17 9 350 241 234 241 224 218 203 200 192 209 220 234 229 223 214 216 216 210 207 210 212 214
182 156 157 191 193 234 69 228 260 90 92 109 100 96 20 32 26 31 24 18 12 11 20 19 19 20 13 2 335 311 266 240 236 222 218 227 214 224 231 237 242 238 230 214 212 210 213 208 215
188 191 157 106 15 55 209 277 310 104 66 89 87 55 29 26 29 35 25 22 8 12 15 14 16 11 21 12 10 2 338 312 296 294 277 251 236 234 235 230 240 245 238 228 219 220 217 215 216
153 157 83 3 132 236 278 281 210 153 152 154 60 51 31 40 33 25 25 18 17 18 6 25 23 23 13 17 16 359 345 341 322 306 281 275 267 243 239 241 234 243 248 248 239 240 221 218 222
135 178 77 124 145 161 161 254 210 168 163 145 116 76 35 29 34 27 24 21 19 21 23 18 22 18 17 12 2 7 357 350 343 325 302 278 274 250 239 235 238 236 235 233 242 245 249 236 224
234 182 152 145 212 219 144 261 260 148 156 131 130 75 34 37 49 44 34 25 28 22 18 16 14 19 7 355 357 2 358 353 353 332 313 288 275 276 259 251 241 238 232 226 228 237 239 243 246